Regional Weather Roundup
Issued by NWS

Home | Current Version | Previous Version | Graphics & Text | Print | Product List | Glossary On
Versions: 1 2 3 4 5 6 7 8 9 10 11 12 13 14 15 16 17 18 19 20 21 22 23 24 25 26 27 28 29 30 31 32 33 34 35 36 37 38 39 40 41 42 43 44 45 46 47 48 49 50
000
ASUS43 KTOP 250708
RWRKS

WEATHER ROUNDUP FOR KANSAS
NATIONAL WEATHER SERVICE GOODLAND KS
200 AM CDT SAT APR 25 2015

NOTE:  "FAIR" INDICATES FEW OR NO CLOUDS BELOW 12,000 FEET WITH NO
SIGNIFICANT WEATHER AND/OR OBSTRUCTIONS TO VISIBILITY.

KSZ001>006-013>018-027>032-041>047-250800-
NORTHWEST KANSAS

CITY           SKY/WX    TMP DP  RH WIND       PRES   REMARKS
GOODLAND       CLOUDY    50  42  74 NW14      29.62R
HAYS           CLOUDY    54  46  76 W3        29.51F
HILL CITY      CLOUDY    55  51  86 W6        29.54R
RUSSELL        LGT RAIN  55  54  96 SW5       29.49S
$$

KSZ061>065-074>080-084>089-250800-
SOUTHWEST KANSAS

CITY           SKY/WX    TMP DP  RH WIND       PRES   REMARKS
DODGE CITY     MOCLDY    55  45  68 N9        29.58F
ELKHART          N/A     51  40  66 W9          N/A
GARDEN CITY    MOCLDY    49  44  83 N7        29.59F
GREAT BEND     CLOUDY    55  52  88 NW10      29.52S
LIBERAL        MOCLDY    52  43  71 W7        29.62F
$$

KSZ066>073-081>083-090>101-250800-
SOUTHEAST KANSAS

CITY           SKY/WX    TMP DP  RH WIND       PRES   REMARKS
CHANUTE        MOCLDY    60  58  92 S15       29.47F
COFFEYVILLE    MOCLDY    62  58  86 S18G28    29.50F
HUTCHINSON     CLOUDY    57  52  83 CALM      29.44F
MEDICINE LODGE   N/A     57  51  80 W9        29.50S
NEWTON         CLOUDY    54  48  82 N7        29.46F THUNDER
PARSONS        MOCLDY    62  59  90 S13G18    29.51F
WICHITA INTL   LGT RAIN  63  60  90 S13       29.43F
WICHITA JABRA  LGT RAIN  63  59  87 S14G23    29.42F
WICHITA MCCONL CLOUDY    63  59  88 S16       29.42F
WINFIELD       CLOUDY    62  59  90 S17G25    29.47F
$$

KSZ007>012-019>026-033>040-048>060-102>105-250800-
NORTHEAST KANSAS

CITY           SKY/WX    TMP DP  RH WIND       PRES   REMARKS
CONCORDIA      CLOUDY    56  52  86 W9        29.41F
EMPORIA        LGT RAIN  56  55  97 S8        29.47F
LAWRENCE       CLOUDY    59  55  87 SE15      29.45F
MANHATTAN      LGT RAIN  56  55  97 SW8       29.40F
MARYSVILLE     CLOUDY    55  54  94 SE13      29.35S
OLATHE IND     CLOUDY    58  54  86 SE16G22   29.48F
OLATHE EXE     CLOUDY    58  54  86 SE12      29.49F
SALINA         LGT RAIN  56  53  90 SW8       29.45F
TOPEKA BILLARD RAIN      62  57  83 SW6       29.46F
TOPEKA FORBES  LGT RAIN  61  57  87 W7        29.46S
$$



USA.gov is the U.S. government's official web portal to all federal, state and local government web resources and services.